Satellite: RS-38 Catalog number: 35869 Epoch time: 11293.74822055 Element set: 809 Inclination: 098.6888 deg RA of node: 347.1793 deg Eccentricity: 0.0005272 Arg of perigee: 035.3593 deg Mean anomaly: 324.7938 deg Mean motion: 14.22026513 rev/day Decay rate: 7.9e-07 rev/day^2 Epoch rev: 10844 Checksum: 339
Satellite: ARISSAT1 Catalog number: 37772 Epoch time: 11293.77958782 Element set: 237 Inclination: 051.6376 deg RA of node: 246.8092 deg Eccentricity: 0.0007741 Arg of perigee: 008.0200 deg Mean anomaly: 066.5222 deg Mean motion: 15.69099575 rev/day Decay rate: 1.17600e-03 rev/day^2 Epoch rev: 1212 Checksum: 302
Satellite: SRMSAT Catalog number: 37839 Epoch time: 11292.62968901 Element set: 10 Inclination: 019.9628 deg RA of node: 021.5381 deg Eccentricity: 0.0019280 Arg of perigee: 083.5148 deg Mean anomaly: 276.7407 deg Mean motion: 14.11974518 rev/day Decay rate: 6.19e-06 rev/day^2 Epoch rev: 105 Checksum: 296
Satellite: JUGNU Catalog number: 37841 Epoch time: 11293.55958539 Element set: 9 Inclination: 019.9730 deg RA of node: 016.0842 deg Eccentricity: 0.0011653 Arg of perigee: 070.6290 deg Mean anomaly: 289.5438 deg Mean motion: 14.10074334 rev/day Decay rate: 2.64e-06 rev/day^2 Epoch rev: 118 Checksum: 284
/EX